User: anonymous   Login
Location: Theydon Bois
(51.6750°N, 0.1050°E)
Time: 17:47:50
(UTC+01:00)
Language:

Cosmos 1818 - Orbit

View from above orbital plane
View from above orbital plane
View from above satellite
View from above satellite

Ground track
Ground track

The orbit data is extracted from the following two-line orbital elements,

1 17369U 87011A   18198.95688127 -.00000102 +00000-0 -60160-6 0  9990
2 17369 065.0115 064.9872 0020253 281.5378 078.3433 14.31436262694995
Epoch (UTC): 17 July 2018 22:57:54
Eccentricity: 0.0020253
inclination: 65.0115°
perigee height: 772 km
apogee height: 801 km
right ascension of ascending node: 64.9872°
argument of perigee: 281.5378°
revolutions per day: 14.31436262
mean anomaly at epoch: 78.3433°
orbit number at epoch: 69499

The dashed part of the orbit path shows where the satellite is in the earth's shadow,  

DLR